Volver al catálogo

FENGYUN 1C DEB

ActivoSSO
NORAD 30052·DEBRIS·🇨🇳 China

Lanzado May 10, 1999 desde Taiyuan Satellite Launch Center

Loading…

Próximos Pases (próximas 24 horas)

TLE

ActualizadoSource: Space-Track

Época: Sep 14, 2026, 07:58 UTC

1 30052U 99025PD  26257.33260447  .00000310  00000-0  28371-3 0  9994
2 30052  99.2776 280.1131 0288057 229.7479 141.7941 13.73253339983374

Sigue FENGYUN 1C DEB en tiempo real con AllMySat

Download on the App Store